PROFILE

 METAR AND TAF INFORMATION
ADDS - METARS form results

(0606 UTC 22 September 2019)
http://aviationweather.gov/metar/data/
 
OIII 220600Z 27012KT 8000 NSC 27/08 Q1015 A2998 NOSIG
OIII 220530Z 26010KT 8000 NSC 26/08 Q1015 A2997
TAF OIII 212300Z 2200/2306 36008KT CAVOK BECMG 2202/2204 27012KT PROB30 2206/2209 27015G25KT TEMPO 2209/2215 27015G28KT FEW035TCU SCT040 SCT120 PROB30 2215/2218 33015G25KT 

 AIRPORT MAP

 RUNWAY INFORMATION
Runway 09 Runway length 1554 ft Runway width 130 ft
Runway elevation 0 ft Runway displaced threshold 0 ft Runway heading 89
Runway 27 Runway length 1554 ft Runway width 130 ft
Runway elevation 0 ft Runway displaced threshold 0 ft Runway heading 269
Runway 11L Runway length 13098 ft Runway width 148 ft
Runway elevation 3962 ft Runway displaced threshold 0 ft Runway heading 109
Runway 29R Runway length 13098 ft Runway width 148 ft
Runway elevation 3797 ft Runway displaced threshold 0 ft Runway heading 289
Runway 11R Runway length 13248 ft Runway width 197 ft
Runway elevation 3949 ft Runway displaced threshold 3075 ft Runway heading 109
Runway 29L Runway length 13248 ft Runway width 197 ft
Runway elevation 3794 ft Runway displaced threshold 0 ft Runway heading 289

 AIRPORT FREQUENCIES
Type APP Name APP Frequency 119.7 MHZ
Type ATIS Name ATIS Frequency 128 MHZ
Type GND Name GND Frequency 121.7 MHZ
Type TWR Name TWR Frequency 118.1 MHZ

 AIRPORT NEAR NAVIGATION AIDS
Type TACAN Name Tehran Frequency 113300 KHZ
Type VOR-DME Name Tehran Frequency 115300 KHZ